Abilene, TX

6:06 PM CST on February 27, 2017 (GMT -0600)
Abilene Regional

Weather History for KABI - December, 2013

Change the Weather History Date:

Wednesday, December 25, 2013

  Actual Average Record
Temperature  
Mean Temperature 39 °F 44 °F  
Max Temperature 48 °F 56 °F 76 °F (1971)
Min Temperature 30 °F 33 °F 6 °F (1983)
Degree Days  
Heating Degree Days 26 21  
Month to date heating degree days 548 486  
Since 1 July heating degree days 1020 919  
Cooling Degree Days 0 0  
Month to date cooling degree days 1 0  
Year to date cooling degree days 2723 2408  
Moisture  
Dew Point 30 °F    
Average Humidity 69    
Maximum Humidity 89    
Minimum Humidity 49    
Precipitation  
Precipitation 0.00 in 0.03 in 2.17 in (1987)
Month to date precipitation 1.11 1.00  
Year to date precipitation 23.19 24.59  
Sea Level Pressure  
Sea Level Pressure 30.33 in    
Wind  
Wind Speed 9 mph (NNW)    
Max Wind Speed 23 mph    
Max Gust Speed 25 mph    
Visibility 10 miles    
Events      
T = Trace of Precipitation, MM = Missing Value Source: NWS Daily Summary

Daily Weather History Graph

Daily Weather History Graph

Search for Another Location

Airport or City:

Trip Planner

Search our weather history database for the weather conditions in past years. The results will help you decide how hot, cold, wet, or windy it might be!

Date:

Astronomy

Dec. 25, 2013 Rise Set
Actual Time 7:38 AM CST 5:39 PM CST
Civil Twilight 7:10 AM CST 6:07 PM CST
Nautical Twilight 6:40 AM CST 6:37 PM CST
Astronomical Twilight 6:10 AM CST 7:07 PM CST
Moon 12:26 AM CST (12/25) 12:27 PM CST (12/25)
Length of Visible Light 10h 56m
Length of Day
10h 01m
Waning Gibbous, 48% of the Moon is Illuminated
Dec 25
Waning Gibbous
Jan 1
New
Jan 7
First Quarter
Jan 15
Full
Jan 23
Last Quarter

Hourly Weather History & Observations

Time (CST) Temp. Windchill Dew Point Humidity Pressure Visibility Wind Dir Wind Speed Gust Speed Precip Events Conditions
12:52 AM 46.0 °F 41.4 °F 28.0 °F 50% 30.14 in 10.0 mi South 9.2 mph 17.3 mph N/A   Clear
1:52 AM 44.1 °F 37.7 °F 27.0 °F 51% 30.14 in 10.0 mi South 12.7 mph 20.7 mph N/A   Clear
2:52 AM 42.1 °F 36.6 °F 26.1 °F 53% 30.16 in 10.0 mi SSE 9.2 mph - N/A   Clear
3:52 AM 43.0 °F 37.7 °F 25.0 °F 49% 30.16 in 10.0 mi South 9.2 mph - N/A   Clear
4:52 AM 37.9 °F 33.5 °F 25.0 °F 60% 30.22 in 10.0 mi NNW 5.8 mph - N/A   Clear
5:52 AM 37.9 °F - 27.0 °F 65% 30.24 in 10.0 mi Calm Calm - N/A   Clear
6:52 AM 33.1 °F 26.9 °F 25.0 °F 72% 30.26 in 10.0 mi WNW 6.9 mph - N/A   Clear
7:52 AM 33.1 °F 25.5 °F 30.0 °F 89% 30.29 in 10.0 mi North 9.2 mph - N/A   Clear
8:02 AM 33.8 °F 27.0 °F 30.2 °F 87% 30.29 in 10.0 mi NNW 8.1 mph - N/A   Scattered Clouds
8:13 AM 33.8 °F 27.7 °F 30.2 °F 87% 30.29 in 10.0 mi NNW 6.9 mph - N/A   Mostly Cloudy
8:22 AM 33.8 °F 29.6 °F 30.2 °F 87% 30.30 in 10.0 mi NNW 4.6 mph - N/A   Scattered Clouds
8:32 AM 35.6 °F 29.9 °F 30.2 °F 81% 30.31 in 10.0 mi NW 6.9 mph - N/A   Mostly Cloudy
8:52 AM 35.1 °F 29.3 °F 30.9 °F 85% 30.33 in 8.0 mi NNW 6.9 mph - N/A   Overcast
9:52 AM 36.0 °F 28.0 °F 30.9 °F 82% 30.35 in 8.0 mi NNW 11.5 mph - N/A   Overcast
10:52 AM 36.0 °F 27.1 °F 30.9 °F 82% 30.38 in 8.0 mi North 13.8 mph - N/A   Overcast
11:52 AM 39.0 °F 30.6 °F 30.9 °F 73% 30.38 in 9.0 mi NNW 15.0 mph - N/A   Overcast
12:21 PM 41.0 °F 33.5 °F 32.0 °F 70% 30.37 in 10.0 mi North 13.8 mph - N/A   Mostly Cloudy
12:48 PM 42.8 °F 37.0 °F 32.0 °F 66% 30.35 in 10.0 mi North 10.4 mph - N/A   Scattered Clouds
12:52 PM 44.1 °F 38.1 °F 33.1 °F 65% 30.35 in 10.0 mi North 11.5 mph - N/A   Partly Cloudy
1:52 PM 45.0 °F 37.6 °F 32.0 °F 60% 30.34 in 10.0 mi NNW 17.3 mph 24.2 mph N/A   Partly Cloudy
2:52 PM 46.0 °F 38.8 °F 32.0 °F 58% 30.34 in 10.0 mi North 18.4 mph 24.2 mph N/A   Clear
3:52 PM 48.0 °F - 33.1 °F 56% 30.34 in 10.0 mi North 12.7 mph - N/A   Partly Cloudy
4:52 PM 46.0 °F 39.9 °F 33.1 °F 61% 30.36 in 10.0 mi North 13.8 mph - N/A   Clear
5:52 PM 44.1 °F 39.0 °F 33.1 °F 65% 30.38 in 10.0 mi North 9.2 mph - N/A   Clear
6:52 PM 41.0 °F 35.8 °F 32.0 °F 70% 30.41 in 10.0 mi North 8.1 mph - N/A   Clear
7:52 PM 39.0 °F 35.7 °F 30.9 °F 73% 30.43 in 10.0 mi North 4.6 mph - N/A   Clear
8:52 PM 36.0 °F 30.3 °F 30.0 °F 79% 30.44 in 10.0 mi North 6.9 mph - N/A   Clear
9:52 PM 35.1 °F 31.0 °F 28.9 °F 78% 30.45 in 10.0 mi NNW 4.6 mph - N/A   Clear
10:52 PM 35.1 °F - 28.9 °F 78% 30.45 in 10.0 mi Calm Calm - N/A   Clear
11:52 PM 30.0 °F - 27.0 °F 88% 30.45 in 10.0 mi Calm Calm - N/A   Clear